GW5221 Weather Reports


Display with metric or nautical units.
time (UTC)temp
F
wind
direction
speed
MPH
gust
MPH
rain 1hr
in
rain 24hr
in
rain mn
in
humidity
%
barometer
mb
20260502163000 87 8 1.0 7.0 0.00 0.00 0.00 66 1019.0
20260502162457 87 162 2.0 7.0 0.00 0.00 0.00 66 1019.0
20260502161954 87 240 5.0 8.0 0.00 0.00 0.00 66 1018.9
20260502161450 87 258 3.0 6.0 0.00 0.00 0.00 67 1018.9
20260502160949 86 8 2.0 7.0 0.00 0.00 0.00 71 1019.1
20260502160446 86 271 5.0 7.0 0.00 0.00 0.00 71 1019.1
20260502151912 85 220 2.0 4.0 0.00 0.00 0.00 74 1019.6
20260502151408 84 326 1.0 7.0 0.00 0.00 0.00 74 1019.3
20260502150906 85 15 2.0 9.0 0.00 0.00 0.00 73 1019.4
20260502150403 85 213 3.0 6.0 0.00 0.00 0.00 72 1019.3
20260502130248 85 67 1.0 4.0 0.00 0.00 0.00 71 1019.2
20260502123735 83 333 2.0 9.0 0.00 0.00 0.00 75 1019.0
20260502123231 83 8 2.0 6.0 0.00 0.00 0.00 76 1018.9
20260502122728 83 332 1.0 4.0 0.00 0.00 0.00 75 1018.7
20260502122224 83 37 2.0 8.0 0.00 0.00 0.00 75 1018.5
20260502121722 83 75 3.0 8.0 0.00 0.00 0.00 75 1018.5
20260502121220 83 60 3.0 4.0 0.00 0.00 0.00 75 1018.3
20260502120716 83 345 2.0 2.0 0.00 0.00 0.00 75 1018.5
20260502120213 83 37 4.0 8.0 0.00 0.00 0.00 75 1018.3
20260502115711 83 312 1.0 7.0 0.00 0.00 0.00 76 1018.1
20260502115207 82 21 2.0 3.0 0.00 0.00 0.00 76 1018.2
20260502114703 82 26 1.0 6.0 0.00 0.00 0.00 77 1018.2
20260502114200 82 347 2.0 6.0 0.00 0.00 0.00 77 1018.0
20260502113657 82 34 4.0 9.0 0.00 0.00 0.00 78 1018.1
20260502113155 81 11 1.0 3.0 0.00 0.00 0.00 78 1018.1
20260502112653 81 56 2.0 3.0 0.00 0.00 0.00 78 1018.0
20260502112151 81 4 1.0 4.0 0.00 0.00 0.00 79 1017.9
20260502111648 81 37 2.0 3.0 0.00 0.00 0.00 79 1017.7
20260502111145 81 4 2.0 8.0 0.00 0.00 0.00 79 1017.7
20260502110643 81 306 1.0 4.0 0.00 0.00 0.00 79 1017.5
20260502110140 81 332 0.0 2.0 0.00 0.00 0.00 79 1017.5
20260502105637 81 311 1.0 1.0 0.00 0.00 0.00 79 1017.4
20260502105134 81 165 3.0 7.0 0.00 0.00 0.00 79 1017.4
20260502104631 80 340 1.0 4.0 0.00 0.00 0.00 79 1017.4
20260502104130 80 10 0.0 4.0 0.00 0.00 0.00 79 1017.2
20260502103627 80 44 1.0 7.0 0.00 0.00 0.00 79 1017.2
20260502103125 80 338 1.0 3.0 0.00 0.00 0.00 79 1017.1
20260502102621 80 357 2.0 3.0 0.00 0.00 0.00 79 1017.1
20260502102118 80 337 3.0 4.0 0.00 0.00 0.00 79 1017.0
20260502101616 80 340 1.0 3.0 0.00 0.00 0.00 79 1017.0
20260502101114 80 92 2.0 4.0 0.00 0.00 0.00 79 1016.8
20260502100613 80 197 2.0 7.0 0.00 0.00 0.00 79 1016.8
20260502100110 80 331 1.0 4.0 0.00 0.00 0.00 80 1016.8
20260502042759 81 351 0.0 2.0 0.00 0.00 0.00 78 1017.6
20260502042256 81 351 0.0 2.0 0.00 0.00 0.00 78 1017.6
20260502041754 81 37 3.0 4.0 0.00 0.00 0.00 78 1017.4
20260502041251 81 278 4.0 7.0 0.00 0.00 0.00 78 1017.8
20260502040748 81 0 2.0 4.0 0.00 0.00 0.00 78 1017.5
20260502040245 81 81 2.0 4.0 0.00 0.00 0.00 78 1017.4
20260502035741 81 43 3.0 6.0 0.00 0.00 0.00 78 1017.5
20260502035238 81 75 1.0 4.0 0.00 0.00 0.00 78 1017.6
20260502034735 81 29 3.0 4.0 0.00 0.00 0.00 78 1017.6
20260502034233 81 328 1.0 6.0 0.00 0.00 0.00 79 1017.5
20260502033731 81 30 2.0 6.0 0.00 0.00 0.00 79 1017.7
20260502033229 81 21 1.0 3.0 0.00 0.00 0.00 79 1017.7
20260502032725 81 59 3.0 4.0 0.00 0.00 0.00 78 1017.9
20260502032221 81 29 3.0 6.0 0.00 0.00 0.00 78 1017.7
20260502031720 81 2 1.0 3.0 0.00 0.00 0.00 78 1017.7
20260502031217 81 36 1.0 6.0 0.00 0.00 0.00 78 1017.8
20260502030716 81 236 2.0 3.0 0.00 0.00 0.00 78 1017.7
20260502030214 81 344 0.0 6.0 0.00 0.00 0.00 77 1017.7
20260502025710 81 5 1.0 2.0 0.00 0.00 0.00 77 1017.8
20260502025208 81 284 2.0 3.0 0.00 0.00 0.00 78 1017.7
20260502024705 81 263 2.0 4.0 0.00 0.00 0.00 78 1017.4
20260502024204 81 16 1.0 4.0 0.00 0.00 0.00 78 1017.8
20260502023701 81 271 1.0 6.0 0.00 0.00 0.00 78 1017.8
20260502023158 81 29 1.0 11.0 0.00 0.00 0.00 78 1017.6
20260502022655 81 347 2.0 6.0 0.00 0.00 0.00 78 1017.5
20260502022152 81 53 2.0 8.0 0.00 0.00 0.00 78 1017.5
20260502021650 81 94 2.0 3.0 0.00 0.00 0.00 78 1017.2
20260502021147 81 37 3.0 7.0 0.00 0.00 0.00 78 1017.5
20260502020644 81 338 2.0 6.0 0.00 0.00 0.00 78 1017.5
20260502020140 81 359 0.0 3.0 0.00 0.00 0.00 78 1017.4
20260502015639 81 31 0.0 4.0 0.00 0.00 0.00 78 1017.2
20260502015134 81 63 2.0 6.0 0.00 0.00 0.00 79 1017.1
20260502014632 81 18 4.0 7.0 0.00 0.00 0.00 79 1017.1
20260502014129 81 67 2.0 4.0 0.00 0.00 0.00 79 1017.0
20260502013625 81 7 1.0 3.0 0.00 0.00 0.00 79 1017.1
20260502013121 81 48 1.0 6.0 0.00 0.00 0.00 79 1016.8
20260502012618 81 27 3.0 7.0 0.00 0.00 0.00 79 1016.6
20260502012116 81 9 3.0 6.0 0.00 0.00 0.00 78 1016.8
20260502011613 81 82 4.0 8.0 0.00 0.00 0.00 78 1016.6
20260502011108 81 15 3.0 4.0 0.00 0.00 0.00 78 1016.6
20260502010606 82 39 4.0 8.0 0.00 0.00 0.00 78 1016.6
20260502005600 82 352 0.0 6.0 0.00 0.00 0.00 77 1016.5
20260502005058 82 21 2.0 6.0 0.00 0.00 0.00 77 1016.5
20260502004553 82 69 3.0 8.0 0.00 0.00 0.00 77 1016.3
20260502004050 82 39 3.0 4.0 0.00 0.00 0.00 76 1016.3
20260502003548 82 51 3.0 9.0 0.00 0.00 0.00 76 1016.4
20260502003045 82 329 1.0 7.0 0.00 0.00 0.00 76 1016.3
20260502002541 82 3 3.0 6.0 0.00 0.00 0.00 76 1016.1
20260502002038 82 315 1.0 6.0 0.00 0.00 0.00 76 1016.3
20260502001536 82 297 2.0 6.0 0.00 0.00 0.00 77 1016.1
20260502001033 82 87 4.0 8.0 0.00 0.00 0.00 77 1016.0
20260502000532 82 348 2.0 8.0 0.00 0.00 0.00 77 1016.0
20260502000028 82 33 2.0 3.0 0.00 0.00 0.00 76 1015.9
20260501235524 82 18 4.0 10.0 0.00 0.00 0.00 76 1015.8
20260501235020 82 150 3.0 3.0 0.00 0.00 0.00 77 1015.6
20260501234516 82 92 4.0 8.0 0.00 0.00 0.00 77 1015.6
20260501234014 82 348 1.0 4.0 0.00 0.00 0.00 77 1015.5
20260501233512 82 14 3.0 8.0 0.00 0.00 0.00 76 1015.3
20260501233008 83 36 0.0 6.0 0.00 0.00 0.00 76 1015.5
20260501232504 83 348 1.0 6.0 0.00 0.00 0.00 76 1015.3
20260501232002 83 18 4.0 4.0 0.00 0.00 0.00 76 1015.1
20260501231500 83 59 3.0 10.0 0.00 0.00 0.00 76 1015.1
20260501230958 83 6 3.0 7.0 0.00 0.00 0.00 75 1015.0
20260501230457 83 69 3.0 7.0 0.00 0.00 0.00 75 1014.9
20260501225954 83 24 1.0 4.0 0.00 0.00 0.00 75 1014.5
20260501225451 83 353 2.0 6.0 0.00 0.00 0.00 74 1014.7
20260501224947 83 109 6.0 9.0 0.00 0.00 0.00 74 1014.8
20260501224445 83 354 4.0 7.0 0.00 0.00 0.00 74 1014.6
20260501223942 84 71 4.0 7.0 0.00 0.00 0.00 74 1014.5
20260501223438 84 82 3.0 3.0 0.00 0.00 0.00 73 1014.5
20260501222933 84 15 2.0 4.0 0.00 0.00 0.00 73 1014.4
20260501222431 84 17 1.0 7.0 0.00 0.00 0.00 72 1014.5
20260501221927 85 196 4.0 6.0 0.00 0.00 0.00 71 1014.2
20260501221424 85 337 3.0 4.0 0.00 0.00 0.00 71 1014.2
20260501220922 85 57 4.0 9.0 0.00 0.00 0.00 69 1014.2
20260501220420 85 62 3.0 4.0 0.00 0.00 0.00 70 1014.0
20260501215915 85 352 0.0 6.0 0.00 0.00 0.00 71 1014.1
20260501215412 86 100 4.0 9.0 0.00 0.00 0.00 72 1014.2
20260501214908 86 356 1.0 4.0 0.00 0.00 0.00 72 1013.9
20260501214403 86 330 4.0 7.0 0.00 0.00 0.00 71 1014.1
20260501213859 86 58 1.0 3.0 0.00 0.00 0.00 70 1014.1
20260501213356 86 355 1.0 2.0 0.00 0.00 0.00 70 1014.0
20260501212851 86 244 2.0 6.0 0.00 0.00 0.00 70 1014.1
20260501212349 86 97 4.0 8.0 0.00 0.00 0.00 69 1014.0
20260501211846 86 346 3.0 7.0 0.00 0.00 0.00 69 1014.1
20260501211343 87 17 3.0 7.0 0.00 0.00 0.00 68 1014.2
20260501210840 86 331 2.0 6.0 0.00 0.00 0.00 69 1014.3
20260501210337 87 43 2.0 8.0 0.00 0.00 0.00 67 1014.2
20260501205833 87 121 3.0 10.0 0.00 0.00 0.00 67 1014.2
20260501205331 87 9 2.0 8.0 0.00 0.00 0.00 67 1014.3
20260501204827 87 85 2.0 8.0 0.00 0.00 0.00 67 1014.4
20260501204324 87 306 2.0 8.0 0.00 0.00 0.00 66 1014.3
20260501203820 87 41 4.0 6.0 0.00 0.00 0.00 67 1014.4
20260501203317 88 13 3.0 10.0 0.00 0.00 0.00 65 1014.4
20260501202814 88 18 3.0 6.0 0.00 0.00 0.00 64 1014.4
20260501202310 89 27 3.0 7.0 0.00 0.00 0.00 63 1014.6
20260501201808 89 22 2.0 3.0 0.00 0.00 0.00 63 1014.5
20260501201304 89 74 2.0 3.0 0.00 0.00 0.00 64 1014.6
20260501200800 89 24 3.0 6.0 0.00 0.00 0.00 64 1014.6
20260501200258 89 13 3.0 6.0 0.00 0.00 0.00 61 1014.7
20260501195755 89 86 3.0 7.0 0.00 0.00 0.00 62 1014.6
20260501195251 89 90 3.0 9.0 0.00 0.00 0.00 63 1014.7
20260501194747 89 266 4.0 7.0 0.00 0.00 0.00 63 1014.9
20260501194243 90 39 3.0 4.0 0.00 0.00 0.00 61 1014.9
20260501193740 90 138 4.0 6.0 0.00 0.00 0.00 61 1014.8
20260501193238 90 338 0.0 2.0 0.00 0.00 0.00 62 1014.8
20260501192736 90 183 3.0 6.0 0.00 0.00 0.00 61 1014.9
20260501192232 90 0 2.0 4.0 0.00 0.00 0.00 61 1015.0
20260501191730 91 257 0.0 4.0 0.00 0.00 0.00 61 1015.2
20260501191227 90 82 1.0 7.0 0.00 0.00 0.00 60 1015.1
20260501190723 90 172 7.0 10.0 0.00 0.00 0.00 60 1015.2
20260501190219 90 184 4.0 7.0 0.00 0.00 0.00 60 1015.2
20260501185715 90 103 3.0 8.0 0.00 0.00 0.00 61 1015.1
20260501185211 91 143 2.0 8.0 0.00 0.00 0.00 61 1015.3
20260501184707 91 124 4.0 7.0 0.00 0.00 0.00 59 1015.3
20260501184202 91 86 2.0 8.0 0.00 0.00 0.00 57 1015.1
20260501183659 91 150 2.0 7.0 0.00 0.00 0.00 57 1015.1
20260501183156 91 21 3.0 9.0 0.00 0.00 0.00 58 1015.1
20260501182652 91 351 1.0 4.0 0.00 0.00 0.00 59 1015.1
20260501182149 91 73 4.0 9.0 0.00 0.00 0.00 57 1015.4
20260501181646 91 327 3.0 6.0 0.00 0.00 0.00 58 1015.7
20260501181142 91 24 4.0 7.0 0.00 0.00 0.00 60 1015.5
20260501180641 90 111 2.0 6.0 0.00 0.00 0.00 62 1015.7
20260501180137 90 28 1.0 4.0 0.00 0.00 0.00 63 1015.8
20260501175633 89 44 1.0 10.0 0.00 0.00 0.00 62 1016.0
20260501175132 90 83 4.0 8.0 0.00 0.00 0.00 59 1016.3
20260501174628 90 103 1.0 8.0 0.00 0.00 0.00 59 1016.3
20260501174125 91 312 5.0 10.0 0.00 0.00 0.00 59 1016.3
20260501173622 90 135 4.0 8.0 0.00 0.00 0.00 59 1016.3
20260501173119 91 346 4.0 9.0 0.00 0.00 0.00 59 1016.5
20260501172615 91 343 2.0 7.0 0.00 0.00 0.00 59 1016.4
20260501172110 90 142 2.0 8.0 0.00 0.00 0.00 61 1016.6
20260501171606 90 41 2.0 7.0 0.00 0.00 0.00 60 1016.6
20260501171103 91 342 3.0 8.0 0.00 0.00 0.00 59 1016.7
20260501170600 91 294 2.0 8.0 0.00 0.00 0.00 59 1016.8
20260501170057 91 58 3.0 4.0 0.00 0.00 0.00 57 1016.9
20260501165555 91 342 2.0 6.0 0.00 0.00 0.00 59 1016.9
20260501165052 91 252 3.0 8.0 0.00 0.00 0.00 58 1016.8
20260501164549 90 77 3.0 8.0 0.00 0.00 0.00 60 1016.9
20260501164046 91 187 5.0 8.0 0.00 0.00 0.00 59 1016.8
20260501163543 90 238 4.0 9.0 0.00 0.00 0.00 61 1017.0